Location: �chenoz-la-M�line
(47.6009°N, 6.1354°E)
Time: 16:49:05
(UTC+00:00)

ERBS - Pass Details

Date: 27 January 2021
Orbit: 405 x 418 km, 57.0° (Epoch: 03 March)

Event Time Altitude Azimuth Distance (km) Brightness Sun altitude
Exits shadow 05:15:01 - 193° (SSW) 1,707 5.3 -19.0°
Reaches altitude 10° 05:15:42 10° 187° (S) 1,462 5.0 -18.9°
Maximum altitude 05:18:25 24° 131° (SE) 882 4.5 -18.4°
Drops below altitude 10° 05:21:08 10° 75° (ENE) 1,468 6.0 -18.0°
Sets 05:23:26 0° 61° (ENE) 2,331 6.9 -17.6°
